www.pogodaiklimat.ru

Погода и климат >> Архив погоды >> Россия >> Камчатский край >> Петропавловск-Камчатский


АРХИВ ПОГОДЫ в Петропавловск-Камчатском

Время (UTC), дата Ветер
(напр.,м/с)
 
Видим.   Явления Облачность Т
(С)
Тd
(С)
f
(%)
Тe
(С)
Тes
(С)
Комфортность P
(гПа)
Po
(гПа)
Тmin
(С)
Tmax
(С)
R
(мм)
R24
(мм)
S
(см)
09 19.03 В 2 50 км 10/3 600 м
[Sc Ac As]
-0.7 -8.5 55 -4 -4 по сезону 1002.8 999.8 +1.8
12 19.03 ЮВ 4 1000 м ливневой снег 10/10 600 м
[Cb cap]
-1.5 -2.9 90 -7 -7 по сезону 1000.3 997.3
15 19.03 ЮВ 5-10
{12}
1000 м ливневой снег {метель} 10/10 600 м
[Cb cap]
-0.6 -1.7 92 -7 -7 по сезону 996.2 993.3
18 19.03 СВ 7-15
{16}
500 м ливневой снег {метель} 10/10 600 м
[Cb cap]
-1.0 -2.0 93 -9 -9 по сезону 992.4 989.5
21 19.03 СВ 6-12
{18}
4000 м слаб. ливневой снег {метель} 10/10 600 м
[Cb cap]
-0.6 -2.6 86 -7 -7 по сезону 991.3 988.3 -1.5 13 121
00 20.03 СЗ 10-13
{14}
4000 м слаб. ливневой снег {метель} 10/10 600 м
[Cb cap]
-3.3 -5.8 83 -12 -12 прохладно 992.7 989.7 -3.6
03 20.03 СЗ 7
{13}
1000 м ливневой снег {метель} 10/10 600 м
[Cb cap]
-3.5 -4.6 92 -12 -12 прохладно 993.4 990.4
06 20.03 З 11-15
{15}
20 км позёмок {ливн. осадки} 9/9 600 м
[Sc]
-3.5 -10.1 60 -13 -13 холодно 994.4 991.4
09 20.03 З 13-17
{18}
50 км позёмок 3/1 600 м
[Sc Ac trans Ci fib]
-6.0 -12.5 60 -17 -17 очень
холодно
996.8 993.7 -0.5 4
12 20.03 СЗ 13-15
{17}
50 км позёмок 1/0
[Ac trans]
-7.4 -15.3 53 -18 -18 очень
холодно
998.3 995.2
15 20.03 СЗ 11-15
{18}
50 км позёмок 1/0
[Ci fib]
-9.5 -16.7 56 -20 -20 очень
холодно
999.1 996.0
18 20.03 СЗ 10-15
{18}
50 км позёмок 1/0
[Ci fib]
-10.2 -18.1 52 -21 -21 очень
холодно
998.5 995.4
21 20.03 СЗ 12-16
{17}
50 км позёмок ясно -9.5 -18.0 50 -21 -21 очень
холодно
998.5 995.4 -10.3 119
00 21.03 СЗ 14-19
{19}
50 км позёмок ясно -8.0 -17.7 46 -19 -19 очень
холодно
998.3 995.3
03 21.03 СЗ 15-19
{19}
50 км позёмок ясно -6.0 -16.6 43 -17 -17 очень
холодно
998.3 995.2
06 21.03 СЗ 13-17
{19}
50 км позёмок ясно -5.5 -15.1 47 -16 -16 очень
холодно
999.7 996.6
09 21.03 СЗ 14-18
{19}
50 км позёмок 3/3 1000 м
[Sc]
-6.8 -16.0 48 -18 -18 очень
холодно
1002.3 999.2 -5.5
12 21.03 СЗ 9-13
{17}
50 км {метель} 1/1 1000 м
[Sc]
-8.0 -17.3 47 -17 -17 очень
холодно
1005.1 1002.0
15 21.03 СЗ 8-12
{14}
50 км {метель} ясно -8.8 -17.5 49 -18 -18 очень
холодно
1006.3 1003.2
18 21.03 С 5
{12}
50 км {метель} ясно -10.0 -20.9 40 -18 -18 очень
холодно
1007.2 1004.0
21 21.03 С 6
{10}
50 км 6/1 1000 м
[Sc Ac trans Ci fib]
-9.4 -20.2 41 -18 -17 очень
холодно
1007.9 1004.8 -10.1 118
03 22.03 СЗ 1 20 км слаб. ливневой снег 10/10 600 м
[Cb cap]
-6.2 -12.0 63 -8 -8 по сезону 1007.1 1004.0
06 22.03 ЮВ 1 20 км слаб. ливневой снег 10/10 600 м
[Cb cap]
-4.8 -10.1 66 -7 -7 по сезону 1004.7 1001.6
09 22.03 ЮВ 3 2000 м слаб. ливневой снег 10/10 600 м
[Cb cap]
-5.1 -7.1 86 -11 -11 прохладно 1004.6 1001.5 -4.2 0.4
12 22.03 В 4-10
{13}
4000 м слаб. ливневой снег {метель} 10/10 600 м
[Cb cap]
-4.9 -9.9 68 -11 -11 по сезону 1003.2 1000.2
15 22.03 В 6-12
{13}
10 км позёмок {ливн. осадки} 10/10 600 м
[Sc]
-4.0 -10.6 60 -11 -11 по сезону 1000.0 997.0
18 22.03 В 5-10
{15}
10 км слаб. ливневой снег {метель} 10/10 600 м
[Cb cap]
-2.8 -10.2 57 -9 -9 по сезону 995.6 992.6
21 22.03 СВ 5-15
{18}
10 км слаб. ливневой снег {метель} 10/10 600 м
[Cb cap]
-1.9 -7.7 64 -8 -8 по сезону 992.4 989.4 -5.2 0.8 118
00 23.03 СВ 5-15
{16}
10 км слаб. ливневой снег {метель} 10/10 600 м
[Cb cap]
-0.9 -6.4 66 -7 -7 по сезону 987.7 984.7
03 23.03 СВ 7-16
{22}
20 км позёмок {ливн. осадки} 10/10 600 м
[Cb cap]
+0.9 -7.4 54 -5 -5 по сезону 981.1 978.1
06 23.03 СВ 6-17
{22}
10 км слаб. ливневой снег {метель} 10/10 600 м
[Cb cap]
+0.7 -6.0 61 -5 -5 по сезону 978.0 975.1
09 23.03 СВ 6-19
{19}
10 км слаб. ливневой снег {метель} 10/10 600 м
[Cb cap]
+0.8 -5.1 65 -5 -5 по сезону 977.2 974.3 +1.0 0.7
12 23.03 С 5-14
{19}
10 км слаб. ливневой снег {метель} 10/10 600 м
[Cb cap]
+1.6 -7.5 51 -3 -3 по сезону 977.6 974.7
15 23.03 С 5-13
{19}
10 км {ливн. осадки} 10/10 600 м
[Sc]
+1.4 -9.1 45 -4 -4 по сезону 979.6 976.7
18 23.03 С 4
{16}
10 км {ливн. осадки} 10/8 600 м
[Sc Ac trans]
+1.1 -10.0 43 -3 -3 тепло 982.7 979.7
21 23.03 З 3
{11}
20 км 10/10 600 м
[Sc]
0.0 -7.6 57 -4 -4 по сезону 984.9 981.9 -0.2 0.0 116
00 24.03 С 4 4000 м слаб. ливневой снег 10/10 600 м
[Cb cap]
-1.4 -4.5 79 -7 -7 по сезону 987.2 984.2 -1.4
03 24.03 С 2 2000 м слаб. ливневой снег 10/10 600 м
[Cb cap]
-1.1 -3.5 84 -5 -5 по сезону 988.0 985.0
06 24.03 СЗ 1 10 км слаб. ливневой снег 10/10 200 м
[Cb cap]
-1.0 -3.8 81 -3 -3 по сезону 989.0 986.0
09 24.03 ЮВ 3 4000 м слаб. ливневой снег 10/10 600 м
[Cb cap]
-2.6 -4.4 87 -8 -8 по сезону 990.2 987.2 0.0 0.4
12 24.03 ЮВ 2 2000 м слаб. ливневой снег 10/10 600 м
[Cb cap]
-2.8 -4.2 90 -7 -7 по сезону 990.0 987.0
15 24.03 СЗ 1 4000 м слаб. ливневой снег 10/10 600 м
[Cb cap]
-3.1 -4.2 92 -5 -5 по сезону 988.9 985.9
18 24.03 С 3 10 км {ливн. осадки} 10/10 600 м
[Sc]
-3.2 -5.0 87 -8 -8 по сезону 987.9 984.9
21 24.03 С 3 50 км 10/6 1000 м
[Sc Ci fib]
-2.5 -7.1 71 -7 -7 по сезону 986.8 983.8 -3.4 2 117
00 25.03 СЗ 6
{10}
50 км 10/3 600 м
[Sc Ci fib]
-0.3 -7.7 57 -6 -5 по сезону 986.3 983.4
03 25.03 З 9-13
{14}
50 км 10/3 600 м
[Sc Ci fib]
-0.0 -7.8 56 -7 -7 по сезону 985.4 982.4
06 25.03 З 8-10
{14}
50 км 6/4 600 м
[Sc Ci fib]
-0.1 -7.7 57 -7 -7 по сезону 985.2 982.2
09 25.03 СЗ 7
{12}
50 км 3/1 600 м
[Sc Ac trans Ci fib]
-1.6 -9.1 57 -9 -9 по сезону 985.6 982.6 +0.3
12 25.03 С 8-10
{11}
50 км 10/0
[Ac As Ci fib]
-4.0 -12.3 52 -12 -12 прохладно 985.9 982.9
15 25.03 З 8-13
{13}
20 км позёмок 10/3 600 м
[Sc Ac trans Ci fib]
-4.4 -12.0 55 -13 -13 прохладно 986.4 983.4
18 25.03 СЗ 8-12
{13}
20 км позёмок 3/1 600 м
[Sc Ac lent Ci fib]
-5.3 -12.7 56 -14 -14 прохладно 985.8 982.8
21 25.03 СЗ 8-11
{13}
50 км {метель} 3/1 600 м
[Sc Ac trans Ci fib]
-6.3 -13.6 56 -15 -15 холодно 986.1 983.1 -6.7 115
00 26.03 З 13-17
{17}
50 км позёмок 3/1 600 м
[Sc Ac trans Ci fib]
-3.7 -12.3 51 -13 -13 холодно 985.5 982.5
03 26.03 СЗ 12-15
{17}
50 км позёмок 3/1 1000 м
[Sc Ac trans Ci fib]
-1.6 -11.3 48 -10 -10 прохладно 985.4 982.4
06 26.03 СЗ 13-16
{19}
50 км {метель} 1/1 1000 м
[Sc]
-0.8 -10.0 50 -9 -9 прохладно 986.3 983.3

 

Местоположение метеостанции Петропавловск-Камчатский (Камчатский край, Россия): широта 52.87 долгота 158.60 высота над уровнем моря 24 м.

В архиве по умолчанию представлена погода в Петропавловск-Камчатском за последнюю неделю. Архивные данные за месяц целиком и за предыдущие месяцы, начиная с января 2011 года, Вы можете получить, выбрав интересующий диапазон дат из раскрывающегося списка и нажав кнопку "Ввод!".


*Определитесь, кто Вы:
робот инопланетянин человек

Внимание! Время в таблицах - всемирное. Для получения местного времени необходимо прибавить поправку, которая равна 12 ч.

Смотрите также архив погоды в соседних городах и на ближайших метеорологических станциях:

Погода в Петропавловском Маяке (Камчатский край, Россия) (7 км)
Погода в Петропавловск-Камч. 2 (Камчатский край, Россия) (24 км)
Погода в Сосновке (Камчатский край, Россия) (31 км)
Погода в Начиках (Камчатский край, Россия) (66 км)
Погода в Водопадной (Камчатский край, Россия) (124 км)
Погода в Пущино (Камчатский край, Россия) (151 км)
Погода в Большерецке (Камчатский край, Россия) (155 км)
Погода в Семячике (Камчатский край, Россия) (163 км)
Погода в Мильково (Камчатский край, Россия) (201 км)
Погода в Озерной (Камчатский край, Россия) (215 км)

Пояснения к столбцам:

Ветер - указаны скорость ветра в м/с - средняя за 10 мин, порывы в срок и между сроками (в фигурных скобках) и направление, откуда дует ветер: С - северный, СВ - северо-восточный, В - восточный, ЮВ - юго-восточный, Ю - южный, ЮЗ - юго-западный, З - западный, СЗ - северо-западный.
Видимость - горизонтальная дальность видимости в метрах или километрах. При видимости от 1 до 10 км при отсутствии осадков обычно наблюдается дымка, при ухудшении видимости до 1 км и менее - туман. В сухую погоду видимость может ухудшаться дымом, пылью или мглою.
Явления - указаны атмосферные явления, наблюдавшиеся в срок или в последний час перед сроком; фигурными скобками обозначены явления, наблюдавшиеся между сроками (за 1-3 часа до срока); квадратными скобками обозначены град или гололедные отложения с указанием их диаметра в мм.
Облачность - указаны через наклонную черту общая и нижняя облачность в баллах и высота нижней границы облаков в метрах; квадратными скобками обозначены формы облаков: Ci - перистые, Cs - перисто-слоистые, Cc - перисто-кучевые, Ac - высококучевые, As - высокослоистые, Sc - слоисто-кучевые, Ns - слоисто-дождевые, Cu - кучевые, Cb - кучево-дождевые. Подробнее классификацию облаков см. в Атласе облаков (PDF).
T - Температура воздуха - температура, измеренная на высоте 2 м над землей.
Td - Температура точки росы - температура, при понижении до которой содержащийся в воздухе водяной пар достигнет насыщения.
f - Относительная влажность воздуха - влажноcть воздуха, измеренная на высоте 2 м над землей.
Te - Эффективная температура - температура, которую ощущает одетый по сезону человек в тени. Характеристика душности погоды. При расчете учитывается влияние влажности воздуха и скорости ветра на теплоощущения человека.
Tes - Эффективная температура на солнце - температура, которую ощущает человек, с поправкой на солнечный нагрев. Характеристика знойности погоды. Зависит от высоты солнца над горизонтом, облачности и скорости ветра. Ночью, в пасмурную погоду, а также при ветре 12 м/с и более поправка равна нулю.
P - Атмосферное давление - приведенное к уровню моря атмосферное давление.
Po - Атмосферное давление - измеренное на уровне метеостанции атмосферное давление.
Tmin - Минимальная температура - минимум температуры воздуха на высоте 2 м над землей.
Tmax - Максимальная температура - максимум температуры воздуха на высоте 2 м над землей.
R - Количество осадков - Количество выпавших осадков за период времени, мм. При наведении курсора мыши на число - период времени, за который выпало указанное количество осадков.
R24 - Количество осадков - Количество выпавших осадков за 24 часа, мм.
S - Снежный покров - Высота снежного покрова, см. При наведении курсора мыши на число - состояние снежного покрова и степень покрытия местности в баллах.